Regional Weather Roundup
Issued by NWS

Home | Current Version | Previous Version | Text Only | Print | Product List | Glossary On
Versions: 1 2 3 4 5 6 7 8 9 10 11 12 13 14 15 16 17 18 19 20 21 22 23 24 25 26 27 28 29 30 31 32 33 34 35 36 37 38 39 40 41 42 43 44 45 46 47 48 49 50
000
ASUS43 KLSX 250510
RWRMO

WEATHER SUMMARY FOR MISSOURI
NATIONAL WEATHER SERVICE SPRINGFIELD MO
1200 AM CDT THU AUG 25 2016

NOTE: "FAIR" INDICATES FEW OR NO CLOUDS BELOW 12,000 FEET WITH NO
       SIGNIFICANT WEATHER AND/OR OBSTRUCTIONS TO VISIBILITY.
       CURRENT SKY AND/OR WEATHER CONDITIONS ARE NOT AVAILABLE FOR
       CHILLICOTHE AND FARMINGTON.

MOZ001>031-035>038-043-044-053-054-250600-
...NORTHERN AND WESTERN MISSOURI...

CITY           SKY/WX    TMP DP  RH WIND       PRES   REMARKS
KANSAS CTY INT LGT RAIN  70  68  93 S5        30.03F
KANSAS C DTWN  LGT RAIN  73  70  90 SE3       30.02F
ST JOSEPH      CLOUDY    71  69  93 CALM      30.03R
CHILLICOTHE      N/A     73  72  96 S5        30.04S
KIRKSVILLE     LGT RAIN  72  70  93 SE9       30.04F FOG

$$
MOZ066>068-077>081-088>096-101>105-250600-
...SOUTHWEST MISSOURI...

CITY           SKY/WX    TMP DP  RH WIND       PRES   REMARKS
SPRINGFIELD    NOT AVBL
JOPLIN         CLEAR     81  67  62 S15       30.05R
BRANSON        CLEAR     75  68  78 S6        30.10F

$$
MOZ032>034-039>042-045>050-055>058-069>072-250600-
...CENTRAL MISSOURI...

CITY           SKY/WX    TMP DP  RH WIND       PRES   REMARKS
COLUMBIA       CLOUDY    80  74  81 SW10      30.05R
JEFFERSON CITY PTCLDY    82  74  76 VRB6      30.02R
ROLLA          CLEAR     77  72  84 SW9       30.06R
SEDALIA        LGT RAIN  72  68  87 NW10      30.10R
WHITEMAN AFB   CLOUDY    68  68 100 N3        30.07F
OSAGE BEACH    CLEAR     80  72  76 S9        30.06R

$$
MOZ051-052-059>065-250600-
...EAST CENTRAL MISSOURI...

CITY           SKY/WX    TMP DP  RH WIND       PRES   REMARKS
ST LOUIS INTL  PTCLDY    85  73  67 SW13      30.02R HX  91
SPIRIT OF STL  CLEAR     82  75  79 SW8       30.00R
ST CHARLES     CLEAR     80  76  87 SW6       30.00R

$$
MOZ072>076-082>087-097>100-106>115-250600-
...SOUTH CENTRAL AND SOUTHEAST MISSOURI...

CITY           SKY/WX    TMP DP  RH WIND       PRES   REMARKS
CAPE GIRARDEAU NOT AVBL
FARMINGTON     CLEAR     77  75  93 SW6       30.08R
POPLAR BLUFF   CLEAR     78  74  87 SW6       30.06S

$$




USA.gov is the U.S. government's official web portal to all federal, state and local government web resources and services.